Time,TemperatureF,DewpointF,PressureIn,WindDirection,WindDirectionDegrees,WindSpeedMPH,WindSpeedGustMPH,Humidity,HourlyPrecipIn,Conditions,Clouds,dailyrainin,SoftwareType,DateUTC
2013-03-19 00:01:00,38.0,24.5,30.03,North,0,0.0,0.0,58,0.00,,,0.00,WUHU216HW,2013-03-19 05:01:00,
2013-03-19 00:06:00,37.8,24.3,30.03,North,0,0.0,0.0,58,0.00,,,0.00,WUHU216HW,2013-03-19 05:06:00,
2013-03-19 00:11:00,37.8,25.2,30.03,North,0,0.0,0.0,60,0.00,,,0.00,WUHU216HW,2013-03-19 05:11:00,
2013-03-19 00:16:00,37.4,24.4,30.03,North,0,0.0,0.0,59,0.00,,,0.00,WUHU216HW,2013-03-19 05:16:00,
2013-03-19 00:21:00,37.3,23.9,30.03,North,0,0.0,0.0,58,0.00,,,0.00,WUHU216HW,2013-03-19 05:21:00,
2013-03-19 00:26:00,37.1,23.7,30.03,North,0,0.0,0.0,58,0.00,,,0.00,WUHU216HW,2013-03-19 05:26:00,
2013-03-19 00:31:00,37.1,23.7,30.03,North,0,0.0,0.0,58,0.00,,,0.00,WUHU216HW,2013-03-19 05:31:00,
2013-03-19 00:36:00,36.7,23.3,30.03,North,0,0.0,0.0,58,0.00,,,0.00,WUHU216HW,2013-03-19 05:36:00,
2013-03-19 00:41:00,36.7,23.3,30.03,North,0,0.0,0.0,58,0.00,,,0.00,WUHU216HW,2013-03-19 05:41:00,
2013-03-19 00:46:00,36.4,23.4,30.03,North,0,0.0,0.0,59,0.00,,,0.00,WUHU216HW,2013-03-19 05:46:00,
2013-03-19 00:51:00,36.2,23.7,30.04,North,0,0.0,0.0,60,0.00,,,0.00,WUHU216HW,2013-03-19 05:51:00,
2013-03-19 00:56:00,36.0,23.6,30.03,North,0,0.0,0.0,60,0.00,,,0.00,WUHU216HW,2013-03-19 05:56:00,
2013-03-19 01:02:00,35.6,23.2,30.04,North,0,0.0,0.0,60,0.00,,,0.00,WUHU216HW,2013-03-19 06:02:00,
2013-03-19 01:07:00,35.6,23.2,30.04,North,0,0.0,0.0,60,0.00,,,0.00,WUHU216HW,2013-03-19 06:07:00,
2013-03-19 01:12:00,35.3,23.2,30.04,North,0,0.0,0.0,61,0.00,,,0.00,WUHU216HW,2013-03-19 06:12:00,
2013-03-19 01:17:00,35.3,23.6,30.04,North,0,0.0,0.0,62,0.00,,,0.00,WUHU216HW,2013-03-19 06:17:00,
2013-03-19 01:22:00,34.9,23.2,30.03,North,0,0.0,0.0,62,0.00,,,0.00,WUHU216HW,2013-03-19 06:22:00,
2013-03-19 01:27:00,34.7,23.0,30.03,North,0,0.0,0.0,62,0.00,,,0.00,WUHU216HW,2013-03-19 06:27:00,
2013-03-19 01:32:00,34.7,23.0,30.03,North,0,0.0,0.0,62,0.00,,,0.00,WUHU216HW,2013-03-19 06:32:00,
2013-03-19 01:37:00,34.6,22.9,30.03,North,0,0.0,0.0,62,0.00,,,0.00,WUHU216HW,2013-03-19 06:37:00,
2013-03-19 01:42:00,34.2,22.5,30.04,North,0,0.0,0.0,62,0.00,,,0.00,WUHU216HW,2013-03-19 06:42:00,
2013-03-19 01:47:00,34.2,22.9,30.04,North,0,0.0,0.0,63,0.00,,,0.00,WUHU216HW,2013-03-19 06:47:00,
2013-03-19 01:52:00,34.0,22.7,30.04,North,0,0.0,0.0,63,0.00,,,0.00,WUHU216HW,2013-03-19 06:52:00,
2013-03-19 01:57:00,34.0,22.7,30.03,North,0,0.0,0.0,63,0.00,,,0.00,WUHU216HW,2013-03-19 06:57:00,
2013-03-19 02:02:00,33.8,22.5,30.04,North,0,0.0,0.0,63,0.00,,,0.00,WUHU216HW,2013-03-19 07:02:00,
2013-03-19 02:07:00,33.7,22.7,30.04,North,0,0.0,0.0,64,0.00,,,0.00,WUHU216HW,2013-03-19 07:07:00,
2013-03-19 02:12:00,33.5,22.5,30.04,North,0,0.0,0.0,64,0.00,,,0.00,WUHU216HW,2013-03-19 07:12:00,
2013-03-19 02:17:00,33.5,22.5,30.04,North,0,0.0,0.0,64,0.00,,,0.00,WUHU216HW,2013-03-19 07:17:00,
2013-03-19 02:22:00,33.3,22.8,30.04,North,0,0.0,0.0,65,0.00,,,0.00,WUHU216HW,2013-03-19 07:22:00,
2013-03-19 02:27:00,32.9,22.4,30.05,North,0,0.0,0.0,65,0.00,,,0.00,WUHU216HW,2013-03-19 07:27:00,
2013-03-19 02:32:00,32.8,22.2,30.05,North,0,0.0,0.0,65,0.00,,,0.00,WUHU216HW,2013-03-19 07:32:00,
2013-03-19 02:37:00,32.6,22.4,30.05,North,0,0.0,0.0,66,0.00,,,0.00,WUHU216HW,2013-03-19 07:37:00,
2013-03-19 02:42:00,32.4,22.3,30.05,North,0,0.0,0.0,66,0.00,,,0.00,WUHU216HW,2013-03-19 07:42:00,
2013-03-19 02:47:00,32.2,22.5,30.06,North,0,0.0,0.0,67,0.00,,,0.00,WUHU216HW,2013-03-19 07:47:00,
2013-03-19 02:52:00,32.0,22.3,30.06,North,0,0.0,0.0,67,0.00,,,0.00,WUHU216HW,2013-03-19 07:52:00,
2013-03-19 02:57:00,32.0,22.0,30.06,North,0,0.0,0.0,66,0.00,,,0.00,WUHU216HW,2013-03-19 07:57:00,
2013-03-19 03:02:00,31.9,21.8,30.06,North,0,0.0,0.0,66,0.00,,,0.00,WUHU216HW,2013-03-19 08:02:00,
2013-03-19 03:07:00,32.0,22.0,30.06,North,0,0.0,0.0,66,0.00,,,0.00,WUHU216HW,2013-03-19 08:07:00,
2013-03-19 03:12:00,32.0,22.0,30.06,North,0,0.0,0.0,66,0.00,,,0.00,WUHU216HW,2013-03-19 08:12:00,
2013-03-19 03:17:00,31.9,21.8,30.06,North,0,0.0,0.0,66,0.00,,,0.00,WUHU216HW,2013-03-19 08:17:00,
2013-03-19 03:22:00,31.9,21.8,30.06,North,0,0.0,0.0,66,0.00,,,0.00,WUHU216HW,2013-03-19 08:22:00,
2013-03-19 03:27:00,31.7,22.0,30.06,North,0,0.0,0.0,67,0.00,,,0.00,WUHU216HW,2013-03-19 08:27:00,
2013-03-19 03:32:00,31.7,22.0,30.06,North,0,0.0,0.0,67,0.00,,,0.00,WUHU216HW,2013-03-19 08:32:00,
2013-03-19 03:37:00,31.5,21.8,30.07,North,0,0.0,0.0,67,0.00,,,0.00,WUHU216HW,2013-03-19 08:37:00,
2013-03-19 03:42:00,31.3,21.6,30.07,North,0,0.0,0.0,67,0.00,,,0.00,WUHU216HW,2013-03-19 08:42:00,
2013-03-19 03:47:00,31.3,21.6,30.06,North,0,0.0,0.0,67,0.00,,,0.00,WUHU216HW,2013-03-19 08:47:00,
2013-03-19 03:52:00,31.3,21.6,30.06,North,0,0.0,0.0,67,0.00,,,0.00,WUHU216HW,2013-03-19 08:52:00,
2013-03-19 03:57:00,31.3,21.6,30.06,North,0,0.0,0.0,67,0.00,,,0.00,WUHU216HW,2013-03-19 08:57:00,
2013-03-19 04:02:00,31.3,21.6,30.05,North,0,0.0,0.0,67,0.00,,,0.00,WUHU216HW,2013-03-19 09:02:00,
2013-03-19 04:07:00,31.3,22.0,30.05,North,0,0.0,0.0,68,0.00,,,0.00,WUHU216HW,2013-03-19 09:07:00,
2013-03-19 04:12:00,31.1,21.8,30.06,North,0,0.0,0.0,68,0.00,,,0.00,WUHU216HW,2013-03-19 09:12:00,
2013-03-19 04:17:00,31.1,21.8,30.05,North,0,0.0,0.0,68,0.00,,,0.00,WUHU216HW,2013-03-19 09:17:00,
2013-03-19 04:22:00,31.0,21.6,30.05,North,0,0.0,0.0,68,0.00,,,0.00,WUHU216HW,2013-03-19 09:22:00,
2013-03-19 04:27:00,31.0,21.6,30.05,North,0,0.0,0.0,68,0.00,,,0.00,WUHU216HW,2013-03-19 09:27:00,
2013-03-19 04:32:00,31.0,22.0,30.06,North,0,0.0,0.0,69,0.00,,,0.00,WUHU216HW,2013-03-19 09:32:00,
2013-03-19 04:37:00,30.8,22.1,30.06,North,0,0.0,0.0,70,0.00,,,0.00,WUHU216HW,2013-03-19 09:37:00,
2013-03-19 04:42:00,30.6,21.6,30.07,North,0,0.0,0.0,69,0.00,,,0.00,WUHU216HW,2013-03-19 09:42:00,
2013-03-19 04:47:00,30.6,22.0,30.07,North,0,0.0,0.0,70,0.00,,,0.00,WUHU216HW,2013-03-19 09:47:00,
2013-03-19 04:52:00,30.8,22.1,30.06,North,0,0.0,0.0,70,0.00,,,0.00,WUHU216HW,2013-03-19 09:52:00,
2013-03-19 04:57:00,30.8,21.8,30.07,North,0,0.0,0.0,69,0.00,,,0.00,WUHU216HW,2013-03-19 09:57:00,
2013-03-19 05:02:00,30.8,21.8,30.07,North,0,0.0,0.0,69,0.00,,,0.00,WUHU216HW,2013-03-19 10:02:00,
2013-03-19 05:07:00,30.8,21.8,30.07,North,0,0.0,0.0,69,0.00,,,0.00,WUHU216HW,2013-03-19 10:07:00,
2013-03-19 05:12:00,30.6,21.6,30.07,North,0,0.0,0.0,69,0.00,,,0.00,WUHU216HW,2013-03-19 10:12:00,
2013-03-19 05:17:00,30.6,22.0,30.07,North,0,0.0,0.0,70,0.00,,,0.00,WUHU216HW,2013-03-19 10:17:00,
2013-03-19 05:22:00,30.6,22.0,30.07,North,0,0.0,0.0,70,0.00,,,0.00,WUHU216HW,2013-03-19 10:22:00,
2013-03-19 05:27:00,31.0,22.0,30.07,North,0,0.0,0.0,69,0.00,,,0.00,WUHU216HW,2013-03-19 10:27:00,
2013-03-19 05:32:00,31.3,22.0,30.08,North,0,0.0,0.0,68,0.00,,,0.00,WUHU216HW,2013-03-19 10:32:00,
2013-03-19 05:37:00,31.3,22.0,30.08,North,0,0.0,0.0,68,0.00,,,0.00,WUHU216HW,2013-03-19 10:37:00,
2013-03-19 05:42:00,31.3,22.0,30.07,North,0,0.0,0.0,68,0.00,,,0.00,WUHU216HW,2013-03-19 10:42:00,
2013-03-19 05:47:00,31.3,21.6,30.08,North,0,0.0,0.0,67,0.00,,,0.00,WUHU216HW,2013-03-19 10:47:00,
2013-03-19 05:52:00,31.5,21.8,30.08,North,0,0.0,0.0,67,0.00,,,0.00,WUHU216HW,2013-03-19 10:52:00,
2013-03-19 05:57:00,31.5,21.4,30.08,North,0,0.0,0.0,66,0.00,,,0.00,WUHU216HW,2013-03-19 10:57:00,
2013-03-19 06:02:00,31.5,21.4,30.09,North,0,0.0,0.0,66,0.00,,,0.00,WUHU216HW,2013-03-19 11:02:00,
2013-03-19 06:07:00,31.5,21.4,30.09,North,0,0.0,0.0,66,0.00,,,0.00,WUHU216HW,2013-03-19 11:07:00,
2013-03-19 06:12:00,31.5,21.4,30.09,North,0,0.0,0.0,66,0.00,,,0.00,WUHU216HW,2013-03-19 11:12:00,
2013-03-19 06:17:00,31.3,21.2,30.09,North,0,0.0,0.0,66,0.00,,,0.00,WUHU216HW,2013-03-19 11:17:00,
2013-03-19 06:22:00,31.3,21.2,30.10,North,0,0.0,0.0,66,0.00,,,0.00,WUHU216HW,2013-03-19 11:22:00,
2013-03-19 06:27:00,31.3,21.2,30.10,North,0,0.0,0.0,66,0.00,,,0.00,WUHU216HW,2013-03-19 11:27:00,
2013-03-19 06:32:00,31.3,21.2,30.10,North,0,0.0,0.0,66,0.00,,,0.00,WUHU216HW,2013-03-19 11:32:00,
2013-03-19 06:37:00,31.3,21.2,30.10,North,0,0.0,0.0,66,0.00,,,0.00,WUHU216HW,2013-03-19 11:37:00,
2013-03-19 06:42:00,31.1,21.1,30.10,North,0,0.0,0.0,66,0.00,,,0.00,WUHU216HW,2013-03-19 11:42:00,
2013-03-19 06:47:00,31.0,20.9,30.10,North,0,0.0,0.0,66,0.00,,,0.00,WUHU216HW,2013-03-19 11:47:00,
2013-03-19 06:52:00,30.8,21.1,30.10,North,0,0.0,0.0,67,0.00,,,0.00,WUHU216HW,2013-03-19 11:52:00,
2013-03-19 06:57:00,30.8,21.1,30.11,North,0,0.0,0.0,67,0.00,,,0.00,WUHU216HW,2013-03-19 11:57:00,
2013-03-19 07:02:00,30.8,20.7,30.11,North,0,0.0,0.0,66,0.00,,,0.00,WUHU216HW,2013-03-19 12:02:00,
2013-03-19 07:07:00,30.8,20.3,30.11,North,0,0.0,0.0,65,0.00,,,0.00,WUHU216HW,2013-03-19 12:07:00,
2013-03-19 07:12:00,31.0,20.9,30.12,North,0,0.0,0.0,66,0.00,,,0.00,WUHU216HW,2013-03-19 12:12:00,
2013-03-19 07:17:00,30.8,20.0,30.12,North,0,0.0,0.0,64,0.00,,,0.00,WUHU216HW,2013-03-19 12:17:00,
2013-03-19 07:22:00,31.0,20.5,30.12,North,0,0.0,0.0,65,0.00,,,0.00,WUHU216HW,2013-03-19 12:22:00,
2013-03-19 07:27:00,30.6,20.5,30.12,North,0,0.0,0.0,66,0.00,,,0.00,WUHU216HW,2013-03-19 12:27:00,
2013-03-19 07:32:00,30.6,20.2,30.12,North,0,0.0,0.0,65,0.00,,,0.00,WUHU216HW,2013-03-19 12:32:00,
2013-03-19 07:37:00,30.6,20.5,30.12,North,0,0.0,0.0,66,0.00,,,0.00,WUHU216HW,2013-03-19 12:37:00,
2013-03-19 07:42:00,30.8,20.7,30.11,North,0,0.0,0.0,66,0.00,,,0.00,WUHU216HW,2013-03-19 12:42:00,
2013-03-19 07:47:00,30.8,20.7,30.11,North,0,0.0,0.0,66,0.00,,,0.00,WUHU216HW,2013-03-19 12:47:00,
2013-03-19 07:52:00,31.1,20.7,30.12,North,0,0.0,0.0,65,0.00,,,0.00,WUHU216HW,2013-03-19 12:52:00,
2013-03-19 07:57:00,31.3,20.5,30.12,North,0,0.0,0.0,64,0.00,,,0.00,WUHU216HW,2013-03-19 12:57:00,
2013-03-19 08:02:00,31.7,20.2,30.11,North,0,0.0,0.0,62,0.00,,,0.00,WUHU216HW,2013-03-19 13:02:00,
2013-03-19 08:07:00,32.0,20.5,30.12,North,0,0.0,0.0,62,0.00,,,0.00,WUHU216HW,2013-03-19 13:07:00,
2013-03-19 08:12:00,32.2,21.1,30.11,North,0,0.0,0.0,63,0.00,,,0.00,WUHU216HW,2013-03-19 13:12:00,
2013-03-19 08:17:00,32.4,20.9,30.12,North,0,0.0,0.0,62,0.00,,,0.00,WUHU216HW,2013-03-19 13:17:00,
2013-03-19 08:22:00,32.4,20.5,30.12,North,0,0.0,0.0,61,0.00,,,0.00,WUHU216HW,2013-03-19 13:22:00,
2013-03-19 08:27:00,32.8,20.4,30.13,North,0,0.0,0.0,60,0.00,,,0.00,WUHU216HW,2013-03-19 13:27:00,
2013-03-19 08:32:00,32.9,20.6,30.14,North,0,0.0,0.0,60,0.00,,,0.00,WUHU216HW,2013-03-19 13:32:00,
2013-03-19 08:38:00,33.3,21.0,30.13,North,0,0.0,0.0,60,0.00,,,0.00,WUHU216HW,2013-03-19 13:38:00,
2013-03-19 08:43:00,33.5,19.8,30.13,North,0,0.0,0.0,57,0.00,,,0.00,WUHU216HW,2013-03-19 13:43:00,
2013-03-19 08:48:00,33.7,20.4,30.14,North,0,0.0,0.0,58,0.00,,,0.00,WUHU216HW,2013-03-19 13:48:00,
2013-03-19 08:53:00,33.8,19.7,30.14,North,0,0.0,0.0,56,0.00,,,0.00,WUHU216HW,2013-03-19 13:53:00,
2013-03-19 08:58:00,34.2,20.1,30.14,North,0,0.0,0.0,56,0.00,,,0.00,WUHU216HW,2013-03-19 13:58:00,
2013-03-19 09:03:00,34.6,20.4,30.15,North,0,0.0,0.0,56,0.00,,,0.00,WUHU216HW,2013-03-19 14:03:00,
2013-03-19 09:08:00,34.6,20.0,30.15,North,0,0.0,0.0,55,0.00,,,0.00,WUHU216HW,2013-03-19 14:08:00,
2013-03-19 09:13:00,34.4,19.4,30.16,North,0,0.0,0.0,54,0.00,,,0.00,WUHU216HW,2013-03-19 14:13:00,
2013-03-19 09:18:00,34.9,20.3,30.16,North,0,0.0,0.0,55,0.00,,,0.00,WUHU216HW,2013-03-19 14:18:00,
2013-03-19 09:23:00,35.5,20.4,30.17,North,0,0.0,0.0,54,0.00,,,0.00,WUHU216HW,2013-03-19 14:23:00,
2013-03-19 09:28:00,35.6,19.4,30.18,North,0,0.0,0.0,51,0.00,,,0.00,WUHU216HW,2013-03-19 14:28:00,
2013-03-19 09:33:00,36.4,20.0,30.17,North,0,0.0,0.0,51,0.00,,,0.00,WUHU216HW,2013-03-19 14:33:00,
2013-03-19 09:38:00,36.4,19.0,30.18,North,0,0.0,0.0,49,0.00,,,0.00,WUHU216HW,2013-03-19 14:38:00,
2013-03-19 09:43:00,36.7,19.9,30.18,North,0,0.0,0.0,50,0.00,,,0.00,WUHU216HW,2013-03-19 14:43:00,
2013-03-19 09:48:00,36.9,17.9,30.18,North,0,0.0,0.0,46,0.00,,,0.00,WUHU216HW,2013-03-19 14:48:00,
2013-03-19 09:53:00,37.1,19.7,30.18,North,0,0.0,0.0,49,0.00,,,0.00,WUHU216HW,2013-03-19 14:53:00,
2013-03-19 09:58:00,37.4,19.4,30.18,North,0,0.0,0.0,48,0.00,,,0.00,WUHU216HW,2013-03-19 14:58:00,
2013-03-19 10:03:00,38.0,18.9,30.19,North,0,0.0,0.0,46,0.00,,,0.00,WUHU216HW,2013-03-19 15:03:00,
2013-03-19 10:08:00,38.5,19.9,30.19,North,0,0.0,0.0,47,0.00,,,0.00,WUHU216HW,2013-03-19 15:08:00,
2013-03-19 10:13:00,38.9,20.3,30.20,North,0,0.0,0.0,47,0.00,,,0.00,WUHU216HW,2013-03-19 15:13:00,
2013-03-19 10:18:00,39.2,20.1,30.20,North,0,0.0,0.0,46,0.00,,,0.00,WUHU216HW,2013-03-19 15:18:00,
2013-03-19 10:23:00,39.4,18.6,30.20,North,0,0.0,0.0,43,0.00,,,0.00,WUHU216HW,2013-03-19 15:23:00,
2013-03-19 10:28:00,39.6,18.8,30.20,North,0,0.0,0.0,43,0.00,,,0.00,WUHU216HW,2013-03-19 15:28:00,
2013-03-19 10:33:00,40.0,21.3,30.20,North,0,0.0,0.0,47,0.00,,,0.00,WUHU216HW,2013-03-19 15:33:00,
2013-03-19 10:38:00,40.1,19.8,30.20,North,0,0.0,0.0,44,0.00,,,0.00,WUHU216HW,2013-03-19 15:38:00,
2013-03-19 10:43:00,40.9,20.0,30.21,North,0,0.0,0.0,43,0.00,,,0.00,WUHU216HW,2013-03-19 15:43:00,
2013-03-19 10:48:00,41.4,21.0,30.21,North,0,0.0,0.0,44,0.00,,,0.00,WUHU216HW,2013-03-19 15:48:00,
2013-03-19 10:53:00,42.1,21.2,30.21,North,0,0.0,0.0,43,0.00,,,0.00,WUHU216HW,2013-03-19 15:53:00,
2013-03-19 10:58:00,42.5,19.8,30.21,North,0,0.0,0.0,40,0.00,,,0.00,WUHU216HW,2013-03-19 15:58:00,
2013-03-19 11:03:00,42.1,18.8,30.21,North,0,0.0,0.0,39,0.00,,,0.00,WUHU216HW,2013-03-19 16:03:00,
2013-03-19 11:08:00,42.5,20.3,30.21,North,0,0.0,0.0,41,0.00,,,0.00,WUHU216HW,2013-03-19 16:08:00,
2013-03-19 11:13:00,43.6,21.9,30.21,North,0,0.0,0.0,42,0.00,,,0.00,WUHU216HW,2013-03-19 16:13:00,
2013-03-19 11:18:00,44.1,21.3,30.21,North,0,0.0,0.0,40,0.00,,,0.00,WUHU216HW,2013-03-19 16:18:00,
2013-03-19 11:23:00,44.3,20.2,30.21,North,0,0.0,0.0,38,0.00,,,0.00,WUHU216HW,2013-03-19 16:23:00,
2013-03-19 11:28:00,44.3,20.2,30.21,North,0,0.0,0.0,38,0.00,,,0.00,WUHU216HW,2013-03-19 16:28:00,
2013-03-19 11:33:00,44.6,20.4,30.21,North,0,0.0,0.0,38,0.00,,,0.00,WUHU216HW,2013-03-19 16:33:00,
2013-03-19 11:38:00,44.3,20.8,30.21,North,0,0.0,0.0,39,0.00,,,0.00,WUHU216HW,2013-03-19 16:38:00,
2013-03-19 11:43:00,45.0,22.2,30.21,North,0,0.0,0.0,40,0.00,,,0.00,WUHU216HW,2013-03-19 16:43:00,
2013-03-19 11:48:00,45.7,20.1,30.21,North,0,0.0,0.0,36,0.00,,,0.00,WUHU216HW,2013-03-19 16:48:00,
2013-03-19 11:53:00,45.9,20.3,30.21,North,0,0.0,0.0,36,0.00,,,0.00,WUHU216HW,2013-03-19 16:53:00,
2013-03-19 11:58:00,46.1,20.4,30.22,North,0,0.0,0.0,36,0.00,,,0.00,WUHU216HW,2013-03-19 16:58:00,
2013-03-19 12:03:00,46.3,21.9,30.22,North,0,0.0,0.0,38,0.00,,,0.00,WUHU216HW,2013-03-19 17:03:00,
2013-03-19 12:08:00,45.9,20.9,30.22,North,0,0.0,0.0,37,0.00,,,0.00,WUHU216HW,2013-03-19 17:08:00,
2013-03-19 12:13:00,46.1,21.1,30.22,North,0,0.0,0.0,37,0.00,,,0.00,WUHU216HW,2013-03-19 17:13:00,
2013-03-19 12:18:00,46.8,22.4,30.22,North,0,0.0,0.0,38,0.00,,,0.00,WUHU216HW,2013-03-19 17:18:00,
2013-03-19 12:23:00,47.2,22.1,30.22,North,0,0.0,0.0,37,0.00,,,0.00,WUHU216HW,2013-03-19 17:23:00,
2013-03-19 12:28:00,47.2,19.4,30.22,North,0,0.0,0.0,33,0.00,,,0.00,WUHU216HW,2013-03-19 17:28:00,
2013-03-19 12:33:00,46.8,19.1,30.22,North,0,0.0,0.0,33,0.00,,,0.00,WUHU216HW,2013-03-19 17:33:00,
2013-03-19 12:38:00,46.4,18.7,30.22,North,0,0.0,0.0,33,0.00,,,0.00,WUHU216HW,2013-03-19 17:38:00,
2013-03-19 12:43:00,47.0,20.5,30.22,North,0,0.0,0.0,35,0.00,,,0.00,WUHU216HW,2013-03-19 17:43:00,
2013-03-19 12:48:00,47.9,22.7,30.22,North,0,0.0,0.0,37,0.00,,,0.00,WUHU216HW,2013-03-19 17:48:00,
2013-03-19 12:53:00,47.0,19.3,30.22,North,0,0.0,0.0,33,0.00,,,0.00,WUHU216HW,2013-03-19 17:53:00,
2013-03-19 12:58:00,47.2,20.1,30.22,North,0,0.0,0.0,34,0.00,,,0.00,WUHU216HW,2013-03-19 17:58:00,
2013-03-19 13:03:00,47.2,17.4,30.22,North,0,0.0,0.0,30,0.00,,,0.00,WUHU216HW,2013-03-19 18:03:00,
2013-03-19 13:08:00,47.7,18.5,30.22,North,0,0.0,0.0,31,0.00,,,0.00,WUHU216HW,2013-03-19 18:08:00,
2013-03-19 13:13:00,48.1,18.9,30.22,North,0,0.0,0.0,31,0.00,,,0.00,WUHU216HW,2013-03-19 18:13:00,
2013-03-19 13:18:00,48.6,20.7,30.22,North,0,0.0,0.0,33,0.00,,,0.00,WUHU216HW,2013-03-19 18:18:00,
2013-03-19 13:23:00,49.1,22.4,30.22,North,0,0.0,0.0,35,0.00,,,0.00,WUHU216HW,2013-03-19 18:23:00,
2013-03-19 13:28:00,48.8,20.8,30.22,North,0,0.0,0.0,33,0.00,,,0.00,WUHU216HW,2013-03-19 18:28:00,
2013-03-19 13:33:00,49.0,21.0,30.22,North,0,0.0,0.0,33,0.00,,,0.00,WUHU216HW,2013-03-19 18:33:00,
2013-03-19 13:38:00,49.0,21.6,30.22,North,0,0.0,0.0,34,0.00,,,0.00,WUHU216HW,2013-03-19 18:38:00,
2013-03-19 13:44:00,48.6,21.3,30.21,North,0,0.0,0.0,34,0.00,,,0.00,WUHU216HW,2013-03-19 18:44:00,
2013-03-19 13:49:00,49.0,21.6,30.21,North,0,0.0,0.0,34,0.00,,,0.00,WUHU216HW,2013-03-19 18:49:00,
2013-03-19 13:54:00,48.8,19.4,30.21,North,0,0.0,0.0,31,0.00,,,0.00,WUHU216HW,2013-03-19 18:54:00,
2013-03-19 13:59:00,48.6,19.4,30.21,North,0,0.0,0.0,31,0.00,,,0.00,WUHU216HW,2013-03-19 18:59:00,
2013-03-19 14:04:00,48.2,19.7,30.20,North,0,0.0,0.0,32,0.00,,,0.00,WUHU216HW,2013-03-19 19:04:00,
2013-03-19 14:08:00,47.5,20.3,30.21,North,0,0.0,0.0,34,0.00,,,0.00,WUHU216HW,2013-03-19 19:08:00,
2013-03-19 14:14:00,47.9,21.3,30.20,North,0,0.0,0.0,35,0.00,,,0.00,WUHU216HW,2013-03-19 19:14:00,
2013-03-19 14:19:00,48.2,19.0,30.20,North,0,0.0,0.0,31,0.00,,,0.00,WUHU216HW,2013-03-19 19:19:00,
2013-03-19 14:24:00,48.4,19.2,30.20,North,0,0.0,0.0,31,0.00,,,0.00,WUHU216HW,2013-03-19 19:24:00,
2013-03-19 14:29:00,49.0,19.6,30.20,North,0,0.0,0.0,31,0.00,,,0.00,WUHU216HW,2013-03-19 19:29:00,
2013-03-19 14:34:00,49.5,20.7,30.20,North,0,0.0,0.0,32,0.00,,,0.00,WUHU216HW,2013-03-19 19:34:00,
2013-03-19 14:39:00,49.7,20.2,30.20,North,0,0.0,0.0,31,0.00,,,0.00,WUHU216HW,2013-03-19 19:39:00,
2013-03-19 14:44:00,49.5,19.4,30.19,North,0,0.0,0.0,30,0.00,,,0.00,WUHU216HW,2013-03-19 19:44:00,
2013-03-19 14:49:00,49.3,21.2,30.19,North,0,0.0,0.0,33,0.00,,,0.00,WUHU216HW,2013-03-19 19:49:00,
2013-03-19 14:54:00,49.1,20.4,30.19,North,0,0.0,0.0,32,0.00,,,0.00,WUHU216HW,2013-03-19 19:54:00,
2013-03-19 14:59:00,49.3,19.9,30.19,North,0,0.0,0.0,31,0.00,,,0.00,WUHU216HW,2013-03-19 19:59:00,
2013-03-19 15:04:00,49.7,20.2,30.19,North,0,0.0,0.0,31,0.00,,,0.00,WUHU216HW,2013-03-19 20:04:00,
2013-03-19 15:09:00,49.5,20.7,30.19,North,0,0.0,0.0,32,0.00,,,0.00,WUHU216HW,2013-03-19 20:09:00,
2013-03-19 15:14:00,49.1,20.4,30.19,North,0,0.0,0.0,32,0.00,,,0.00,WUHU216HW,2013-03-19 20:14:00,
2013-03-19 15:19:00,49.5,21.4,30.19,North,0,0.0,0.0,33,0.00,,,0.00,WUHU216HW,2013-03-19 20:19:00,
2013-03-19 15:24:00,49.3,19.9,30.18,North,0,0.0,0.0,31,0.00,,,0.00,WUHU216HW,2013-03-19 20:24:00,
2013-03-19 15:29:00,49.3,19.3,30.18,North,0,0.0,0.0,30,0.00,,,0.00,WUHU216HW,2013-03-19 20:29:00,
2013-03-19 15:34:00,49.7,21.5,30.18,North,0,0.0,0.0,33,0.00,,,0.00,WUHU216HW,2013-03-19 20:34:00,
2013-03-19 15:39:00,49.9,17.8,30.18,North,0,0.0,0.0,28,0.00,,,0.00,WUHU216HW,2013-03-19 20:39:00,
2013-03-19 15:44:00,49.9,20.4,30.18,North,0,0.0,0.0,31,0.00,,,0.00,WUHU216HW,2013-03-19 20:44:00,
2013-03-19 15:49:00,50.2,20.0,30.18,North,0,0.0,0.0,30,0.00,,,0.00,WUHU216HW,2013-03-19 20:49:00,
2013-03-19 15:54:00,49.3,18.3,30.18,North,0,0.0,0.0,29,0.00,,,0.00,WUHU216HW,2013-03-19 20:54:00,
2013-03-19 15:59:00,49.0,17.1,30.18,North,0,0.0,0.0,28,0.00,,,0.00,WUHU216HW,2013-03-19 20:59:00,
2013-03-19 16:04:00,49.0,18.9,30.18,North,0,0.0,0.0,30,0.00,,,0.00,WUHU216HW,2013-03-19 21:04:00,
2013-03-19 16:09:00,49.0,18.0,30.19,North,0,0.0,0.0,29,0.00,,,0.00,WUHU216HW,2013-03-19 21:09:00,
2013-03-19 16:14:00,49.0,20.3,30.19,North,0,0.0,0.0,32,0.00,,,0.00,WUHU216HW,2013-03-19 21:14:00,
2013-03-19 16:19:00,48.6,19.4,30.19,North,0,0.0,0.0,31,0.00,,,0.00,WUHU216HW,2013-03-19 21:19:00,
2013-03-19 16:24:00,48.6,19.4,30.19,North,0,0.0,0.0,31,0.00,,,0.00,WUHU216HW,2013-03-19 21:24:00,
2013-03-19 16:29:00,48.6,20.7,30.19,North,0,0.0,0.0,33,0.00,,,0.00,WUHU216HW,2013-03-19 21:29:00,
2013-03-19 16:34:00,49.0,21.0,30.19,North,0,0.0,0.0,33,0.00,,,0.00,WUHU216HW,2013-03-19 21:34:00,
2013-03-19 16:39:00,49.0,21.0,30.19,North,0,0.0,0.0,33,0.00,,,0.00,WUHU216HW,2013-03-19 21:39:00,
2013-03-19 16:44:00,48.8,17.8,30.20,North,0,0.0,0.0,29,0.00,,,0.00,WUHU216HW,2013-03-19 21:44:00,
2013-03-19 16:49:00,48.8,19.4,30.19,North,0,0.0,0.0,31,0.00,,,0.00,WUHU216HW,2013-03-19 21:49:00,
2013-03-19 16:54:00,48.6,17.7,30.20,North,0,0.0,0.0,29,0.00,,,0.00,WUHU216HW,2013-03-19 21:54:00,
2013-03-19 16:59:00,48.1,16.3,30.19,North,0,0.0,0.0,28,0.00,,,0.00,WUHU216HW,2013-03-19 21:59:00,
2013-03-19 17:04:00,47.9,17.1,30.19,North,0,0.0,0.0,29,0.00,,,0.00,WUHU216HW,2013-03-19 22:04:00,
2013-03-19 17:09:00,47.9,18.0,30.19,North,0,0.0,0.0,30,0.00,,,0.00,WUHU216HW,2013-03-19 22:09:00,
2013-03-19 17:14:00,47.9,18.7,30.19,North,0,0.0,0.0,31,0.00,,,0.00,WUHU216HW,2013-03-19 22:14:00,
2013-03-19 17:19:00,47.9,18.7,30.19,North,0,0.0,0.0,31,0.00,,,0.00,WUHU216HW,2013-03-19 22:19:00,
2013-03-19 17:24:00,47.9,19.4,30.20,North,0,0.0,0.0,32,0.00,,,0.00,WUHU216HW,2013-03-19 22:24:00,
2013-03-19 17:29:00,47.7,18.5,30.20,North,0,0.0,0.0,31,0.00,,,0.00,WUHU216HW,2013-03-19 22:29:00,
2013-03-19 17:34:00,47.5,18.4,30.19,North,0,0.0,0.0,31,0.00,,,0.00,WUHU216HW,2013-03-19 22:34:00,
2013-03-19 17:39:00,47.5,18.4,30.20,North,0,0.0,0.0,31,0.00,,,0.00,WUHU216HW,2013-03-19 22:39:00,
2013-03-19 17:44:00,47.5,19.7,30.20,North,0,0.0,0.0,33,0.00,,,0.00,WUHU216HW,2013-03-19 22:44:00,
2013-03-19 17:49:00,47.2,18.7,30.20,North,0,0.0,0.0,32,0.00,,,0.00,WUHU216HW,2013-03-19 22:49:00,
2013-03-19 17:54:00,47.2,18.7,30.20,North,0,0.0,0.0,32,0.00,,,0.00,WUHU216HW,2013-03-19 22:54:00,
2013-03-19 17:59:00,47.0,19.3,30.20,North,0,0.0,0.0,33,0.00,,,0.00,WUHU216HW,2013-03-19 22:59:00,
2013-03-19 18:04:00,46.8,19.1,30.21,North,0,0.0,0.0,33,0.00,,,0.00,WUHU216HW,2013-03-19 23:04:00,
2013-03-19 18:09:00,46.8,18.4,30.20,North,0,0.0,0.0,32,0.00,,,0.00,WUHU216HW,2013-03-19 23:09:00,
2013-03-19 18:14:00,46.6,18.3,30.20,North,0,0.0,0.0,32,0.00,,,0.00,WUHU216HW,2013-03-19 23:14:00,
2013-03-19 18:19:00,46.6,18.9,30.20,North,0,0.0,0.0,33,0.00,,,0.00,WUHU216HW,2013-03-19 23:19:00,
2013-03-19 18:24:00,46.8,20.4,30.20,North,0,0.0,0.0,35,0.00,,,0.00,WUHU216HW,2013-03-19 23:24:00,
2013-03-19 18:29:00,46.6,20.3,30.20,North,0,0.0,0.0,35,0.00,,,0.00,WUHU216HW,2013-03-19 23:29:00,
2013-03-19 18:34:00,46.4,19.5,30.20,North,0,0.0,0.0,34,0.00,,,0.00,WUHU216HW,2013-03-19 23:34:00,
2013-03-19 18:39:00,46.4,20.1,30.20,North,0,0.0,0.0,35,0.00,,,0.00,WUHU216HW,2013-03-19 23:39:00,
2013-03-19 18:44:00,46.3,19.9,30.20,North,0,0.0,0.0,35,0.00,,,0.00,WUHU216HW,2013-03-19 23:44:00,
2013-03-19 18:49:00,46.1,21.1,30.20,North,0,0.0,0.0,37,0.00,,,0.00,WUHU216HW,2013-03-19 23:49:00,
2013-03-19 18:54:00,45.9,20.3,30.20,North,0,0.0,0.0,36,0.00,,,0.00,WUHU216HW,2013-03-19 23:54:00,
2013-03-19 18:59:00,45.7,20.8,30.20,North,0,0.0,0.0,37,0.00,,,0.00,WUHU216HW,2013-03-19 23:59:00,
2013-03-19 19:04:00,45.7,21.4,30.20,North,0,0.0,0.0,38,0.00,,,0.00,WUHU216HW,2013-03-20 00:04:00,
2013-03-19 19:09:00,45.4,21.1,30.20,North,0,0.0,0.0,38,0.00,,,0.00,WUHU216HW,2013-03-20 00:09:00,
2013-03-19 19:14:00,45.4,21.1,30.20,North,0,0.0,0.0,38,0.00,,,0.00,WUHU216HW,2013-03-20 00:14:00,
2013-03-19 19:19:00,45.0,21.4,30.20,North,0,0.0,0.0,39,0.00,,,0.00,WUHU216HW,2013-03-20 00:19:00,
2013-03-19 19:24:00,44.8,21.2,30.20,North,0,0.0,0.0,39,0.00,,,0.00,WUHU216HW,2013-03-20 00:24:00,
2013-03-19 19:29:00,44.6,21.2,30.20,North,0,0.0,0.0,39,0.00,,,0.00,WUHU216HW,2013-03-20 00:29:00,
2013-03-19 19:34:00,44.3,20.8,30.19,North,0,0.0,0.0,39,0.00,,,0.00,WUHU216HW,2013-03-20 00:34:00,
2013-03-19 19:39:00,43.9,21.2,30.20,North,0,0.0,0.0,40,0.00,,,0.00,WUHU216HW,2013-03-20 00:39:00,
2013-03-19 19:44:00,43.6,20.8,30.20,North,0,0.0,0.0,40,0.00,,,0.00,WUHU216HW,2013-03-20 00:44:00,
2013-03-19 19:49:00,43.2,21.1,30.20,North,0,0.0,0.0,41,0.00,,,0.00,WUHU216HW,2013-03-20 00:49:00,
2013-03-19 19:54:00,43.0,21.4,30.20,North,0,0.0,0.0,42,0.00,,,0.00,WUHU216HW,2013-03-20 00:54:00,
2013-03-19 19:59:00,42.7,21.1,30.20,North,0,0.0,0.0,42,0.00,,,0.00,WUHU216HW,2013-03-20 00:59:00,
2013-03-19 20:04:00,42.3,20.7,30.20,North,0,0.0,0.0,42,0.00,,,0.00,WUHU216HW,2013-03-20 01:04:00,
2013-03-19 20:09:00,42.1,21.2,30.20,North,0,0.0,0.0,43,0.00,,,0.00,WUHU216HW,2013-03-20 01:09:00,
2013-03-19 20:14:00,41.8,20.8,30.19,North,0,0.0,0.0,43,0.00,,,0.00,WUHU216HW,2013-03-20 01:14:00,
2013-03-19 20:19:00,41.6,21.2,30.19,North,0,0.0,0.0,44,0.00,,,0.00,WUHU216HW,2013-03-20 01:19:00,
2013-03-19 20:24:00,41.4,21.0,30.19,North,0,0.0,0.0,44,0.00,,,0.00,WUHU216HW,2013-03-20 01:24:00,
2013-03-19 20:29:00,41.2,21.3,30.19,North,0,0.0,0.0,45,0.00,,,0.00,WUHU216HW,2013-03-20 01:29:00,
2013-03-19 20:34:00,41.0,21.2,30.19,North,0,0.0,0.0,45,0.00,,,0.00,WUHU216HW,2013-03-20 01:34:00,
2013-03-19 20:39:00,40.5,20.7,30.19,North,0,0.0,0.0,45,0.00,,,0.00,WUHU216HW,2013-03-20 01:39:00,
2013-03-19 20:44:00,40.1,20.3,30.19,North,0,0.0,0.0,45,0.00,,,0.00,WUHU216HW,2013-03-20 01:44:00,
2013-03-19 20:49:00,40.0,20.7,30.19,North,0,0.0,0.0,46,0.00,,,0.00,WUHU216HW,2013-03-20 01:49:00,
2013-03-19 20:54:00,39.8,20.5,30.19,North,0,0.0,0.0,46,0.00,,,0.00,WUHU216HW,2013-03-20 01:54:00,
2013-03-19 20:59:00,39.4,19.7,30.19,North,0,0.0,0.0,45,0.00,,,0.00,WUHU216HW,2013-03-20 01:59:00,
2013-03-19 21:04:00,39.2,20.1,30.19,North,0,0.0,0.0,46,0.00,,,0.00,WUHU216HW,2013-03-20 02:04:00,
2013-03-19 21:09:00,39.1,19.9,30.20,North,0,0.0,0.0,46,0.00,,,0.00,WUHU216HW,2013-03-20 02:09:00,
2013-03-19 21:14:00,38.5,19.5,30.20,North,0,0.0,0.0,46,0.00,,,0.00,WUHU216HW,2013-03-20 02:14:00,
2013-03-19 21:19:00,38.2,19.6,30.19,North,0,0.0,0.0,47,0.00,,,0.00,WUHU216HW,2013-03-20 02:19:00,
2013-03-19 21:24:00,37.8,19.8,30.20,North,0,0.0,0.0,48,0.00,,,0.00,WUHU216HW,2013-03-20 02:24:00,
2013-03-19 21:29:00,37.6,19.6,30.20,North,0,0.0,0.0,48,0.00,,,0.00,WUHU216HW,2013-03-20 02:29:00,
2013-03-19 21:34:00,37.3,19.8,30.20,North,0,0.0,0.0,49,0.00,,,0.00,WUHU216HW,2013-03-20 02:34:00,
2013-03-19 21:39:00,37.1,19.7,30.20,North,0,0.0,0.0,49,0.00,,,0.00,WUHU216HW,2013-03-20 02:39:00,
2013-03-19 21:44:00,37.1,19.7,30.20,North,0,0.0,0.0,49,0.00,,,0.00,WUHU216HW,2013-03-20 02:44:00,
2013-03-19 21:49:00,36.7,19.4,30.20,North,0,0.0,0.0,49,0.00,,,0.00,WUHU216HW,2013-03-20 02:49:00,
2013-03-19 21:54:00,36.4,19.5,30.20,North,0,0.0,0.0,50,0.00,,,0.00,WUHU216HW,2013-03-20 02:54:00,
2013-03-19 21:59:00,36.4,19.5,30.20,North,0,0.0,0.0,50,0.00,,,0.00,WUHU216HW,2013-03-20 02:59:00,
2013-03-19 22:04:00,36.0,19.6,30.20,North,0,0.0,0.0,51,0.00,,,0.00,WUHU216HW,2013-03-20 03:04:00,
2013-03-19 22:09:00,35.6,19.4,30.20,North,0,0.0,0.0,51,0.00,,,0.00,WUHU216HW,2013-03-20 03:09:00,
2013-03-19 22:14:00,35.6,19.8,30.20,North,0,0.0,0.0,52,0.00,,,0.00,WUHU216HW,2013-03-20 03:14:00,
2013-03-19 22:19:00,35.5,19.6,30.20,North,0,0.0,0.0,52,0.00,,,0.00,WUHU216HW,2013-03-20 03:19:00,
2013-03-19 22:24:00,35.3,19.8,30.20,North,0,0.0,0.0,53,0.00,,,0.00,WUHU216HW,2013-03-20 03:24:00,
2013-03-19 22:29:00,35.3,19.8,30.20,North,0,0.0,0.0,53,0.00,,,0.00,WUHU216HW,2013-03-20 03:29:00,
2013-03-19 22:35:00,35.1,20.1,30.20,North,0,0.0,0.0,54,0.00,,,0.00,WUHU216HW,2013-03-20 03:35:00,
2013-03-19 22:40:00,34.9,19.9,30.20,North,0,0.0,0.0,54,0.00,,,0.00,WUHU216HW,2013-03-20 03:40:00,
2013-03-19 22:45:00,34.9,19.9,30.20,North,0,0.0,0.0,54,0.00,,,0.00,WUHU216HW,2013-03-20 03:45:00,
2013-03-19 22:50:00,34.7,19.7,30.20,North,0,0.0,0.0,54,0.00,,,0.00,WUHU216HW,2013-03-20 03:50:00,
2013-03-19 22:55:00,34.4,19.8,30.20,North,0,0.0,0.0,55,0.00,,,0.00,WUHU216HW,2013-03-20 03:55:00,
2013-03-19 23:00:00,34.2,20.1,30.20,North,0,0.0,0.0,56,0.00,,,0.00,WUHU216HW,2013-03-20 04:00:00,
2013-03-19 23:05:00,34.2,20.1,30.20,North,0,0.0,0.0,56,0.00,,,0.00,WUHU216HW,2013-03-20 04:05:00,
2013-03-19 23:10:00,34.2,20.1,30.20,North,0,0.0,0.0,56,0.00,,,0.00,WUHU216HW,2013-03-20 04:10:00,
2013-03-19 23:15:00,34.2,20.1,30.20,North,0,0.0,0.0,56,0.00,,,0.00,WUHU216HW,2013-03-20 04:15:00,
2013-03-19 23:20:00,34.0,19.9,30.20,North,0,0.0,0.0,56,0.00,,,0.00,WUHU216HW,2013-03-20 04:20:00,
2013-03-19 23:25:00,34.0,19.9,30.20,North,0,0.0,0.0,56,0.00,,,0.00,WUHU216HW,2013-03-20 04:25:00,
2013-03-19 23:30:00,33.8,19.7,30.20,North,0,0.0,0.0,56,0.00,,,0.00,WUHU216HW,2013-03-20 04:30:00,
2013-03-19 23:35:00,33.8,19.7,30.20,North,0,0.0,0.0,56,0.00,,,0.00,WUHU216HW,2013-03-20 04:35:00,
2013-03-19 23:40:00,33.8,20.2,30.20,North,0,0.0,0.0,57,0.00,,,0.00,WUHU216HW,2013-03-20 04:40:00,
2013-03-19 23:45:00,33.7,20.0,30.20,North,0,0.0,0.0,57,0.00,,,0.00,WUHU216HW,2013-03-20 04:45:00,
2013-03-19 23:50:00,33.7,20.0,30.20,North,0,0.0,0.0,57,0.00,,,0.00,WUHU216HW,2013-03-20 04:50:00,
2013-03-19 23:55:00,33.7,20.4,30.20,North,0,0.0,0.0,58,0.00,,,0.00,WUHU216HW,2013-03-20 04:55:00,